IEDINB57 Weather Reports


Display with metric or nautical units.
time (UTC)temp
F
wind
direction
speed
MPH
gust
MPH
rain 1hr
in
rain 24hr
in
rain mn
in
humidity
%
barometer
mb
20260507222048 46 221 5.0 13.0 0.00 0.00 0.00 72 1012.9
20260507221553 46 124 5.0 14.0 0.00 0.00 0.00 72 1012.8
20260507221047 46 190 4.0 14.0 0.00 0.00 0.00 72 1012.9
20260507220547 46 180 5.0 14.0 0.00 0.00 0.00 72 1012.8
20260507220056 46 195 5.0 13.0 0.00 0.00 0.00 72 1012.9
20260507215550 46 194 5.0 13.0 0.00 0.00 0.00 72 1012.8
20260507215047 46 192 5.0 14.0 0.00 0.00 0.00 72 1012.8
20260507214604 46 214 5.0 14.0 0.00 0.00 0.00 72 1012.9
20260507214048 46 211 5.0 15.0 0.00 0.00 0.00 72 1012.9
20260507213548 47 261 6.0 16.0 0.00 0.00 0.00 71 1012.9
20260507213102 47 200 8.0 19.0 0.00 0.00 0.00 71 1012.8
20260507212550 47 167 9.0 19.0 0.00 0.00 0.00 71 1012.8
20260507212048 47 224 8.0 19.0 0.00 0.00 0.00 71 1012.7
20260507211554 47 159 9.0 19.0 0.00 0.00 0.00 71 1012.6
20260507211048 47 192 8.0 17.0 0.00 0.00 0.00 71 1012.7
20260507210548 47 227 7.0 17.0 0.00 0.00 0.00 70 1012.7
20260507210051 47 205 6.0 17.0 0.00 0.00 0.00 70 1012.9
20260507205550 47 227 8.0 16.0 0.00 0.00 0.00 70 1013.0
20260507205048 47 179 6.0 15.0 0.00 0.00 0.00 70 1013.0
20260507204553 47 182 5.0 14.0 0.00 0.00 0.00 70 1013.0
20260507204048 47 173 5.0 14.0 0.00 0.00 0.00 70 1012.9
20260507203552 47 240 3.0 14.0 0.00 0.00 0.00 70 1013.0
20260507203051 48 171 4.0 12.0 0.00 0.00 0.00 69 1013.0
20260507202552 48 175 4.0 8.0 0.00 0.00 0.00 69 1013.1
20260507202050 48 202 3.0 9.0 0.00 0.00 0.00 69 1013.1
20260507201550 48 210 1.0 9.0 0.00 0.00 0.00 69 1013.0
20260507201048 48 173 2.0 7.0 0.00 0.00 0.00 69 1013.0
20260507200550 48 205 3.0 10.0 0.00 0.00 0.00 68 1013.0
20260507200057 48 198 4.0 11.0 0.00 0.00 0.00 68 1013.0
20260507195546 48 218 6.0 11.0 0.00 0.00 0.00 68 1013.0
20260507195047 48 213 5.0 9.0 0.00 0.00 0.00 68 1012.9
20260507194617 48 213 4.0 11.0 0.00 0.00 0.00 68 1012.8
20260507194050 49 211 3.0 12.0 0.00 0.00 0.00 67 1012.8
20260507193550 49 202 6.0 12.0 0.00 0.00 0.00 67 1012.8
20260507193055 49 196 5.0 12.0 0.00 0.00 0.00 67 1012.8
20260507192550 49 160 5.0 12.0 0.00 0.00 0.00 67 1012.8
20260507192049 49 183 4.0 10.0 0.00 0.00 0.00 66 1012.8
20260507191554 49 209 4.0 11.0 0.00 0.00 0.00 66 1012.9
20260507191051 49 185 4.0 11.0 0.00 0.00 0.00 66 1012.8
20260507190550 49 218 6.0 11.0 0.00 0.00 0.00 66 1012.7
20260507190100 49 185 6.0 11.0 0.00 0.00 0.00 65 1012.9
20260507185550 50 215 5.0 10.0 0.00 0.00 0.00 65 1012.8
20260507185051 50 212 4.0 11.0 0.00 0.00 0.00 64 1012.8
20260507184554 50 165 5.0 12.0 0.00 0.00 0.00 64 1012.8
20260507184050 50 195 6.0 12.0 0.00 0.00 0.00 64 1012.6
20260507183550 50 236 5.0 15.0 0.00 0.00 0.00 63 1012.5
20260507183056 50 209 5.0 16.0 0.00 0.00 0.00 63 1012.5
20260507182550 50 225 6.0 16.0 0.00 0.00 0.00 62 1012.6
20260507182052 50 188 7.0 14.0 0.00 0.00 0.00 61 1012.4
20260507181558 51 181 5.0 19.0 0.00 0.00 0.00 61 1012.3
20260507181049 51 211 6.0 19.0 0.00 0.00 0.00 61 1012.3
20260507180552 51 188 9.0 19.0 0.00 0.00 0.00 60 1012.3
20260507180055 51 195 8.0 16.0 0.00 0.00 0.00 60 1012.2
20260507175549 51 227 6.0 19.0 0.00 0.00 0.00 60 1012.2
20260507175049 51 218 8.0 19.0 0.00 0.00 0.00 60 1012.3
20260507174601 51 207 9.0 17.0 0.00 0.00 0.00 61 1012.2
20260507174048 51 213 6.0 14.0 0.00 0.00 0.00 60 1012.2
20260507173550 51 182 7.0 20.0 0.00 0.00 0.00 59 1012.2
20260507173127 51 203 8.0 22.0 0.00 0.00 0.00 58 1012.1
20260507172550 52 192 8.0 23.0 0.00 0.00 0.00 57 1012.0
20260507172049 53 215 10.0 23.0 0.00 0.00 0.00 56 1012.0
20260507171608 53 227 10.0 19.0 0.00 0.00 0.00 56 1012.1
20260507171050 53 242 9.0 16.0 0.00 0.00 0.00 57 1012.1
20260507170550 53 245 7.0 16.0 0.00 0.00 0.00 56 1012.3
20260507170110 53 210 6.0 20.0 0.00 0.00 0.00 57 1012.4
20260507165549 52 189 7.0 20.0 0.00 0.00 0.00 58 1012.4
20260507165049 52 148 8.0 17.0 0.00 0.00 0.00 58 1012.4
20260507164559 52 178 8.0 17.0 0.00 0.00 0.00 58 1012.4
20260507164050 52 190 7.0 17.0 0.00 0.00 0.00 57 1012.5
20260507163550 53 213 5.0 15.0 0.00 0.00 0.00 56 1012.6
20260507163054 52 208 7.0 15.0 0.00 0.00 0.00 56 1012.5
20260507162550 52 182 6.0 16.0 0.00 0.00 0.00 57 1012.5
20260507162049 52 203 8.0 16.0 0.00 0.00 0.00 56 1012.5
20260507161604 52 217 7.0 18.0 0.00 0.00 0.00 57 1012.5
20260507161046 52 236 7.0 18.0 0.00 0.00 0.00 56 1012.5
20260507160549 52 198 10.0 16.0 0.00 0.00 0.00 55 1012.5
20260507160051 52 200 7.0 18.0 0.00 0.00 0.00 55 1012.6
20260507155545 53 195 8.0 18.0 0.00 0.00 0.00 55 1012.6
20260507155048 52 237 7.0 23.0 0.00 0.00 0.00 54 1012.6
20260507154554 53 181 10.0 23.0 0.00 0.00 0.00 54 1012.7
20260507154050 52 189 8.0 16.0 0.00 0.00 0.00 53 1012.6
20260507153549 53 183 8.0 16.0 0.00 0.00 0.00 53 1012.6
20260507153057 53 202 8.0 15.0 0.00 0.00 0.00 54 1012.7
20260507152548 53 169 7.0 13.0 0.00 0.00 0.00 55 1012.6
20260507152049 53 192 7.0 15.0 0.00 0.00 0.00 55 1012.5
20260507151551 53 196 5.0 16.0 0.00 0.00 0.00 56 1012.6
20260507151047 53 230 6.0 17.0 0.00 0.00 0.00 56 1012.7
20260507150548 52 174 7.0 17.0 0.00 0.00 0.00 57 1012.7
20260507150100 52 185 6.0 17.0 0.00 0.00 0.00 58 1012.8
20260507145549 52 234 9.0 17.0 0.00 0.00 0.00 58 1012.8
20260507145049 52 168 7.0 15.0 0.00 0.00 0.00 59 1012.8
20260507144557 52 186 5.0 14.0 0.00 0.00 0.00 60 1012.8
20260507144049 51 176 7.0 21.0 0.00 0.00 0.00 60 1012.8
20260507143545 50 204 7.0 21.0 0.00 0.00 0.00 61 1012.8
20260507143059 50 217 9.0 17.0 0.00 0.00 0.00 61 1012.8
20260507142548 50 239 5.0 15.0 0.00 0.00 0.00 62 1013.0
20260507142049 50 180 8.0 17.0 0.00 0.00 0.00 62 1012.9
20260507141628 50 178 10.0 17.0 0.00 0.00 0.00 62 1013.1
20260507141051 50 161 6.0 17.0 0.00 0.00 0.00 62 1013.1
20260507140547 50 206 8.0 17.0 0.00 0.00 0.00 62 1013.1
20260507140051 50 205 7.0 21.0 0.00 0.00 0.00 63 1013.2
20260507135546 50 148 8.0 21.0 0.00 0.00 0.00 62 1013.3
20260507135047 49 194 9.0 19.0 0.00 0.00 0.00 63 1013.5
20260507134559 50 198 6.0 19.0 0.00 0.00 0.00 63 1013.4
20260507134045 49 189 9.0 17.0 0.00 0.00 0.00 63 1013.4
20260507133549 49 215 5.0 19.0 0.00 0.00 0.00 64 1013.2
20260507133104 49 239 8.0 22.0 0.00 0.00 0.00 64 1013.3
20260507132545 49 237 7.0 22.0 0.00 0.00 0.00 64 1013.3
20260507132049 49 227 9.0 22.0 0.00 0.00 0.00 64 1013.3
20260507131555 49 238 10.0 22.0 0.00 0.00 0.00 64 1013.2
20260507131050 49 214 11.0 19.0 0.00 0.00 0.00 63 1013.1
20260507130550 49 197 9.0 19.0 0.00 0.00 0.00 63 1013.2
20260507130054 49 221 10.0 20.0 0.00 0.00 0.00 63 1013.2
20260507125551 49 213 10.0 20.0 0.00 0.00 0.00 63 1013.1
20260507125049 49 242 9.0 17.0 0.00 0.00 0.00 63 1013.2
20260507124554 49 213 8.0 20.0 0.00 0.00 0.00 63 1013.2
20260507124049 49 207 9.0 20.0 0.00 0.00 0.00 63 1013.1
20260507123550 49 209 8.0 18.0 0.00 0.00 0.00 64 1013.2
20260507123055 48 186 5.0 18.0 0.00 0.00 0.00 66 1013.2
20260507122549 48 189 7.0 18.0 0.00 0.00 0.00 66 1013.3
20260507122047 48 180 5.0 16.0 0.00 0.00 0.00 66 1013.3
20260507121555 47 182 8.0 15.0 0.00 0.00 0.00 67 1013.5
20260507121051 47 208 5.0 15.0 0.00 0.00 0.00 67 1013.4
20260507120551 47 209 5.0 18.0 0.00 0.00 0.00 68 1013.4
20260507115550 46 150 6.0 18.0 0.00 0.00 0.00 69 1013.5
20260507115054 46 198 6.0 18.0 0.00 0.00 0.00 69 1013.5
20260507114605 46 198 7.0 15.0 0.00 0.00 0.00 69 1013.5
20260507114052 45 161 7.0 17.0 0.00 0.00 0.00 69 1013.7
20260507113551 45 200 7.0 18.0 0.00 0.00 0.00 69 1013.6
20260507113054 45 194 9.0 18.0 0.00 0.00 0.00 68 1013.7
20260507112550 45 153 7.0 20.0 0.00 0.00 0.00 69 1013.7
20260507112050 46 209 8.0 20.0 0.00 0.00 0.00 69 1013.7
20260507111552 46 195 4.0 13.0 0.00 0.00 0.00 69 1013.7
20260507111047 46 190 5.0 15.0 0.00 0.00 0.00 68 1013.8
20260507110551 46 180 4.0 16.0 0.00 0.00 0.00 67 1013.8
20260507105549 46 206 7.0 14.0 0.00 0.00 0.00 66 1014.0
20260507105050 46 203 5.0 13.0 0.00 0.00 0.00 66 1014.1
20260507104554 47 234 5.0 12.0 0.00 0.00 0.00 65 1014.0
20260507104051 47 239 4.0 10.0 0.00 0.00 0.00 64 1014.1
20260507103551 47 217 3.0 10.0 0.00 0.00 0.00 64 1014.0
20260507103053 47 208 2.0 10.0 0.00 0.00 0.00 65 1014.0
20260507102550 47 191 4.0 10.0 0.00 0.00 0.00 64 1014.1
20260507102048 47 175 3.0 14.0 0.00 0.00 0.00 65 1014.1
20260507101558 47 216 6.0 14.0 0.00 0.00 0.00 64 1014.1
20260507101050 47 186 3.0 10.0 0.00 0.00 0.00 63 1014.0
20260507100546 48 223 4.0 11.0 0.00 0.00 0.00 64 1014.0
20260507100051 48 221 4.0 11.0 0.00 0.00 0.00 64 1014.0
20260507095546 48 191 4.0 11.0 0.00 0.00 0.00 64 1014.0
20260507095049 48 166 4.0 11.0 0.00 0.00 0.00 64 1013.9
20260507094556 48 192 6.0 11.0 0.00 0.00 0.00 63 1013.8
20260507094048 49 201 3.0 11.0 0.00 0.00 0.00 65 1014.0
20260507093548 49 233 3.0 9.0 0.00 0.00 0.00 64 1013.9
20260507093052 49 200 3.0 9.0 0.00 0.00 0.00 64 1013.8
20260507092549 49 246 4.0 9.0 0.00 0.00 0.00 64 1013.7
20260507092049 49 194 3.0 10.0 0.00 0.00 0.00 64 1013.8
20260507091549 49 215 2.0 10.0 0.00 0.00 0.00 64 1013.7
20260507091048 48 221 4.0 14.0 0.00 0.00 0.00 64 1013.7
20260507090550 48 194 5.0 14.0 0.00 0.00 0.00 63 1013.7
20260507090055 48 200 2.0 10.0 0.00 0.00 0.00 64 1013.8
20260507085546 48 179 3.0 10.0 0.00 0.00 0.00 63 1013.7
20260507085047 48 207 5.0 11.0 0.00 0.00 0.00 63 1013.8
20260507084550 48 196 5.0 11.0 0.00 0.00 0.00 63 1013.7
20260507084047 49 211 4.0 19.0 0.00 0.00 0.00 64 1013.7
20260507083549 48 201 7.0 19.0 0.00 0.00 0.00 63 1013.7
20260507083051 49 193 7.0 14.0 0.00 0.00 0.00 64 1013.8
20260507082548 49 178 5.0 14.0 0.00 0.00 0.00 64 1013.8
20260507082047 48 234 4.0 12.0 0.00 0.00 0.00 64 1013.8
20260507081552 48 206 1.0 9.0 0.00 0.00 0.00 65 1013.7
20260507081050 48 204 4.0 9.0 0.00 0.00 0.00 66 1013.7
20260507080547 47 104 2.0 8.0 0.00 0.00 0.00 66 1013.8
20260507080052 47 163 3.0 8.0 0.00 0.00 0.00 67 1013.7
20260507075547 46 217 2.0 5.0 0.00 0.00 0.00 68 1013.9
20260507075052 46 213 1.0 8.0 0.00 0.00 0.00 68 1013.9
20260507074554 45 166 2.0 9.0 0.00 0.00 0.00 68 1014.0
20260507074046 46 157 4.0 9.0 0.00 0.00 0.00 68 1014.0
20260507073550 45 186 3.0 7.0 0.00 0.00 0.00 69 1013.8
20260507073128 45 196 1.0 10.0 0.00 0.00 0.00 69 1013.8
20260507072547 44 149 3.0 10.0 0.00 0.00 0.00 70 1013.9
20260507072128 44 29 2.0 5.0 0.00 0.00 0.00 71 1013.8
20260507071552 43 69 1.0 4.0 0.00 0.00 0.00 71 1013.9
20260507071050 43 0 0.0 7.0 0.00 0.00 0.00 71 1013.8
20260507070550 43 119 1.0 7.0 0.00 0.00 0.00 71 1013.8
20260507070053 43 201 2.0 14.0 0.00 0.00 0.00 70 1013.8
20260507065549 42 179 4.0 14.0 0.00 0.00 0.00 70 1013.8
20260507065049 42 130 1.0 9.0 0.00 0.00 0.00 70 1013.8
20260507064608 42 229 2.0 11.0 0.00 0.00 0.00 70 1013.8
20260507064052 42 197 2.0 11.0 0.00 0.00 0.00 70 1013.8
20260507063550 42 161 4.0 9.0 0.00 0.00 0.00 70 1013.8
20260507063057 42 146 1.0 6.0 0.00 0.00 0.00 71 1013.9
20260507062550 41 202 1.0 7.0 0.00 0.00 0.00 72 1013.9
20260507062050 41 0 1.0 7.0 0.00 0.00 0.00 72 1013.8
20260507061553 40 188 1.0 7.0 0.00 0.00 0.00 74 1013.9
20260507061049 39 43 2.0 4.0 0.00 0.00 0.00 74 1013.8
20260507060549 39 43 0.0 4.0 0.00 0.00 0.00 75 1013.9
20260507060054 39 0 0.0 2.0 0.00 0.00 0.00 76 1013.9
20260507055550 38 0 0.0 4.0 0.00 0.00 0.00 76 1013.9
20260507055049 38 0 2.0 4.0 0.00 0.00 0.00 77 1014.0
20260507054553 38 57 1.0 3.0 0.00 0.00 0.00 77 1014.0
20260507054049 38 57 0.0 3.0 0.00 0.00 0.00 77 1014.0
20260507053550 37 57 0.0 4.0 0.00 0.00 0.00 77 1014.0
20260507053055 37 0 1.0 4.0 0.00 0.00 0.00 77 1014.0
20260507052550 37 63 0.0 2.0 0.00 0.00 0.00 77 1013.9
20260507052050 37 63 0.0 4.0 0.00 0.00 0.00 76 1014.0
20260507051553 38 0 1.0 5.0 0.00 0.00 0.00 74 1014.0
20260507051049 38 62 2.0 5.0 0.00 0.00 0.00 73 1014.0
20260507050550 39 0 0.0 4.0 0.00 0.00 0.00 72 1014.0
20260507050058 39 0 0.0 7.0 0.00 0.00 0.00 71 1013.9
20260507045550 39 231 2.0 10.0 0.00 0.00 0.00 71 1013.9
20260507045047 39 176 3.0 10.0 0.00 0.00 0.00 72 1014.0
20260507044601 38 191 3.0 9.0 0.00 0.00 0.00 73 1014.1
20260507044051 38 128 1.0 4.0 0.00 0.00 0.00 74 1013.9
20260507043550 38 131 1.0 4.0 0.00 0.00 0.00 75 1014.1
20260507043055 37 134 2.0 4.0 0.00 0.00 0.00 77 1014.1
20260507042550 37 145 1.0 3.0 0.00 0.00 0.00 78 1014.2
20260507042050 36 0 0.0 2.0 0.00 0.00 0.00 77 1014.2
20260507041600 37 145 0.0 2.0 0.00 0.00 0.00 76 1014.1
20260507041050 37 0 0.0 2.0 0.00 0.00 0.00 76 1014.1
20260507040549 37 0 0.0 2.0 0.00 0.00 0.00 75 1013.9
20260507040104 37 145 0.0 2.0 0.00 0.00 0.00 74 1014.0
20260507035550 38 0 0.0 1.0 0.00 0.00 0.00 72 1014.0
20260507035050 39 0 0.0 1.0 0.00 0.00 0.00 70 1014.0
20260507034612 40 0 0.0 7.0 0.00 0.00 0.00 70 1014.2
20260507034050 40 0 1.0 7.0 0.00 0.00 0.00 69 1014.0
20260507033550 40 173 2.0 5.0 0.00 0.00 0.00 70 1014.1
20260507033105 40 151 2.0 5.0 0.00 0.00 0.00 70 1014.2
20260507032552 40 0 2.0 5.0 0.00 0.00 0.00 70 1014.3
20260507032046 40 0 1.0 7.0 0.00 0.00 0.00 69 1014.3
20260507031552 40 185 2.0 7.0 0.00 0.00 0.00 68 1014.3
20260507031050 40 190 2.0 8.0 0.00 0.00 0.00 68 1014.3
20260507030546 40 210 4.0 8.0 0.00 0.00 0.00 68 1014.4
20260507030053 40 208 3.0 9.0 0.00 0.00 0.00 68 1014.3
20260507025547 40 227 4.0 9.0 0.00 0.00 0.00 69 1014.4
20260507025047 40 217 3.0 7.0 0.00 0.00 0.00 69 1014.5
20260507024558 40 199 2.0 6.0 0.00 0.00 0.00 69 1014.4
20260507024051 40 184 2.0 5.0 0.00 0.00 0.00 70 1014.4
20260507023551 39 163 2.0 5.0 0.00 0.00 0.00 71 1014.4
20260507023053 39 170 1.0 3.0 0.00 0.00 0.00 73 1014.4
20260507022548 38 55 0.0 3.0 0.00 0.00 0.00 75 1014.3
20260507022050 38 61 0.0 2.0 0.00 0.00 0.00 76 1014.4
20260507021604 38 0 0.0 3.0 0.00 0.00 0.00 76 1014.4
20260507021050 38 0 0.0 3.0 0.00 0.00 0.00 76 1014.3
20260507020550 38 61 0.0 2.0 0.00 0.00 0.00 76 1014.4
20260507020052 38 0 1.0 2.0 0.00 0.00 0.00 76 1014.3
20260507015549 38 61 0.0 2.0 0.00 0.00 0.00 76 1014.4
20260507015049 37 61 0.0 1.0 0.00 0.00 0.00 77 1014.3
20260507014553 37 0 0.0 3.0 0.00 0.00 0.00 77 1014.4
20260507014047 37 0 0.0 3.0 0.00 0.00 0.00 77 1014.4
20260507013547 37 61 0.0 3.0 0.00 0.00 0.00 76 1014.5
20260507013106 37 0 0.0 0.0 0.00 0.00 0.00 77 1014.5
20260507012550 37 0 0.0 0.0 0.00 0.00 0.00 77 1014.5
20260507012048 37 0 0.0 2.0 0.00 0.00 0.00 77 1014.6
20260507011551 37 0 0.0 2.0 0.00 0.00 0.00 76 1014.6
20260507011050 37 0 0.0 2.0 0.00 0.00 0.00 77 1014.6
20260507010550 37 0 0.0 0.0 0.00 0.00 0.00 76 1014.7
20260507010054 37 0 0.0 1.0 0.00 0.00 0.00 76 1014.8
20260507005553 37 0 0.0 1.0 0.00 0.00 0.00 75 1014.9
20260507005049 37 0 0.0 1.0 0.00 0.00 0.00 75 1014.9
20260507004554 37 0 0.0 2.0 0.00 0.00 0.00 75 1014.9
20260507004048 37 0 0.0 3.0 0.00 0.00 0.00 74 1014.9
20260507003548 37 61 0.0 3.0 0.00 0.00 0.00 73 1014.9
20260507003051 37 61 0.0 2.0 0.00 0.00 0.00 73 1015.0
20260507002547 37 61 0.0 2.0 0.00 0.00 0.00 73 1015.0
20260507002047 37 0 0.0 1.0 0.00 0.00 0.00 73 1015.1
20260507001609 37 0 0.0 2.0 0.00 0.00 0.00 73 1015.2
20260507001051 37 0 0.0 3.0 0.00 0.00 0.00 73 1015.2
20260507000547 37 61 1.0 4.0 0.00 0.00 0.00 73 1015.2
20260507000053 37 61 1.0 4.0 0.00 0.00 0.00 72 1015.2
20260506235547 37 62 0.0 4.0 0.00 0.00 0.00 72 1015.1
20260506235050 38 0 0.0 5.0 0.00 0.00 0.00 71 1015.1
20260506234600 38 61 1.0 8.0 0.00 0.00 0.00 70 1015.1
20260506234050 38 112 2.0 9.0 0.00 0.00 0.00 70 1015.2
20260506233550 38 90 2.0 9.0 0.00 0.00 0.00 70 1015.1
20260506233056 38 133 3.0 9.0 0.00 0.00 0.00 70 1015.3
20260506232549 38 112 2.0 7.0 0.00 0.00 0.00 69 1015.4
20260506232047 38 132 2.0 8.0 0.00 0.00 0.00 69 1015.2
20260506231553 38 121 1.0 8.0 0.00 0.00 0.00 69 1015.4
20260506231047 39 123 3.0 8.0 0.00 0.00 0.00 69 1015.3
20260506230547 39 134 2.0 8.0 0.00 0.00 0.00 69 1015.2
20260506230056 39 119 3.0 8.0 0.00 0.00 0.00 69 1015.3
20260506225550 39 139 2.0 9.0 0.00 0.00 0.00 68 1015.4
20260506225050 39 103 2.0 9.0 0.00 0.00 0.00 68 1015.2
20260506224605 39 90 3.0 9.0 0.00 0.00 0.00 68 1015.3
20260506224049 39 134 3.0 9.0 0.00 0.00 0.00 67 1015.2
20260506223550 40 130 2.0 9.0 0.00 0.00 0.00 67 1015.3
20260506223058 40 107 2.0 11.0 0.00 0.00 0.00 67 1015.3
20260506222550 40 133 3.0 11.0 0.00 0.00 0.00 67 1015.2